Manhattan, KS

7:36 AM CST on December 09, 2019 (GMT -0600)
Manhattan Regional

Weather History for KMHK - October, 2019

Change the Weather History Date:

Tuesday, October 29, 2019

  Actual Average Record
Temperature  
Mean Temperature 31 °F 50 °F  
Max Temperature 39 °F 63 °F 85 °F (2016)
Min Temperature 23 °F 37 °F 23 °F (2017)
Degree Days  
Heating Degree Days 34 15  
Month to date heating degree days 365 297  
Since 1 July heating degree days 366 367  
Cooling Degree Days 0 0  
Month to date cooling degree days 15 21  
Year to date cooling degree days 1610 1358  
Moisture  
Dew Point 26 °F    
Average Humidity 77    
Maximum Humidity 92    
Minimum Humidity 59    
Precipitation  
Precipitation 0.00 in 0.06 in 0.36 in (1996)
Month to date precipitation 2.84 2.10  
Year to date precipitation 40.82 29.81  
Sea Level Pressure  
Sea Level Pressure 30.28 in    
Wind  
Wind Speed 4 mph ()    
Max Wind Speed 14 mph    
Max Gust Speed 20 mph    
Visibility 10.0 miles    
Events      
T = Trace of Precipitation, MM = Missing Value Source: Averaged Metar Reports

Daily Weather History Graph

Daily Weather History Graph

Search for Another Location

Airport or City:

Astronomy

Oct. 29, 2019 Rise Set
Actual Time 7:50 AM CDT 6:29 PM CDT
Civil Twilight 7:23 AM CDT 6:56 PM CDT
Nautical Twilight 6:51 AM CDT 7:28 PM CDT
Astronomical Twilight 6:20 AM CDT 7:59 PM CDT
Moon 9:25 AM CDT (10/29) 7:55 PM CDT (10/29)
Length of Visible Light 11h 33m
Length of Day
10h 38m
Waxing Crescent, 3% of the Moon is Illuminated
Oct 29
Waxing Crescent
Nov 4
First Quarter
Nov 12
Full
Nov 19
Last Quarter
Nov 26
New

Hourly Weather History & Observations

Time (CDT) Temp. Windchill Dew Point Humidity Pressure Visibility Wind Dir Wind Speed Gust Speed Precip Events Conditions
12:52 AM 30.0 °F - 26.1 °F 85% 30.23 in 10.0 mi Calm Calm - N/A   Mostly Cloudy
1:02 AM 30.0 °F 26.5 °F 26.1 °F 85% 30.19 in 10.0 mi NNW 3.5 mph - N/A   Scattered Clouds
1:52 AM 28.0 °F 22.8 °F 25.0 °F 88% 30.25 in 10.0 mi West 4.6 mph - N/A   Partly Cloudy
2:52 AM 26.1 °F - 23.0 °F 88% 30.25 in 10.0 mi Calm Calm - N/A   Clear
3:52 AM 26.1 °F 20.5 °F 23.0 °F 88% 30.25 in 10.0 mi WNW 4.6 mph - N/A   Clear
4:52 AM 25.0 °F - 21.9 °F 88% 30.26 in 10.0 mi Calm Calm - N/A   Mostly Cloudy
5:52 AM 25.0 °F - 21.9 °F 88% 30.26 in 10.0 mi Calm Calm - N/A   Mostly Cloudy
6:52 AM 28.9 °F 23.9 °F 26.1 °F 89% 30.28 in 10.0 mi NE 4.6 mph - N/A   Overcast
7:06 AM 28.9 °F 23.9 °F 26.1 °F 89% 30.25 in 10.0 mi NE 4.6 mph - N/A   Overcast
7:36 AM 30.0 °F 26.5 °F 26.1 °F 85% 30.26 in 10.0 mi ENE 3.5 mph - N/A   Overcast
7:52 AM 30.0 °F 26.5 °F 26.1 °F 85% 30.31 in 10.0 mi Variable 3.5 mph - N/A   Overcast
8:52 AM 28.9 °F 21.1 °F 25.0 °F 85% 30.33 in 10.0 mi NE 8.1 mph - N/A   Overcast
9:52 AM 30.0 °F 23.2 °F 26.1 °F 85% 30.33 in 10.0 mi NNE 6.9 mph - N/A   Overcast
10:52 AM 32.0 °F 27.5 °F 26.1 °F 79% 30.33 in 10.0 mi ENE 4.6 mph - N/A   Overcast
11:52 AM 33.1 °F 25.5 °F 26.1 °F 75% 30.31 in 10.0 mi ENE 9.2 mph - N/A   Overcast
12:52 PM 34.0 °F 31.0 °F 27.0 °F 75% 30.32 in 10.0 mi Variable 3.5 mph - N/A   Overcast
1:48 PM 35.6 °F 31.7 °F 26.6 °F 70% 30.26 in 10.0 mi NE 4.6 mph - N/A   Overcast
1:52 PM 36.0 °F 30.3 °F 27.0 °F 70% 30.29 in 10.0 mi NNE 6.9 mph - N/A   Overcast
2:52 PM 37.9 °F 32.7 °F 27.0 °F 65% 30.28 in 10.0 mi ENE 6.9 mph - N/A   Overcast
3:52 PM 39.0 °F 32.8 °F 27.0 °F 62% 30.27 in 10.0 mi NE 9.2 mph - N/A   Overcast
4:52 PM 39.0 °F 32.8 °F 27.0 °F 62% 30.27 in 10.0 mi ENE 9.2 mph - N/A   Overcast
4:59 PM 39.0 °F 32.8 °F 28.0 °F 65% 30.24 in 10.0 mi ENE 9.2 mph - N/A   Overcast
5:52 PM 37.9 °F 30.9 °F 27.0 °F 65% 30.27 in 10.0 mi NNE 10.4 mph - N/A   Overcast
6:52 PM 37.0 °F 30.4 °F 27.0 °F 67% 30.27 in 10.0 mi NE 9.2 mph - N/A   Overcast
7:52 PM 37.0 °F 30.4 °F 28.0 °F 70% 30.28 in 10.0 mi NE 9.2 mph - N/A   Overcast
8:52 PM 37.0 °F 31.0 °F 28.0 °F 70% 30.30 in 10.0 mi NE 8.1 mph - N/A   Overcast
9:52 PM 36.0 °F 28.0 °F 28.0 °F 73% 30.32 in 10.0 mi NE 11.5 mph - N/A   Overcast
10:05 PM 36.0 °F 27.5 °F 28.0 °F 73% 30.29 in 10.0 mi NE 12.7 mph - N/A   Overcast
10:52 PM 36.0 °F 29.0 °F 28.9 °F 76% 30.33 in 10.0 mi NE 9.2 mph - N/A   Overcast
11:10 PM 35.1 °F 27.9 °F 28.9 °F 78% 30.30 in 10.0 mi NE 9.2 mph - N/A   Overcast
11:52 PM 35.1 °F 27.4 °F 28.9 °F 78% 30.32 in 10.0 mi NE 10.4 mph - N/A   Overcast